Location: Burleson Fire Department Station 2
(32.5391°N, 97.3075°W)
Time: 00:42:43
(UTC+00:00)

NOAA 15 - Pass Details

Date: 15 December 2025
Orbit: 793 x 810 km, 98.5° (Epoch: 20 January)

Event Time Altitude Azimuth Distance (km) Brightness Sun altitude
Rises 01:46:27 0° 190° (S) 3,311 8.0 -29.0°
Reaches altitude 10° 01:49:01 10° 200° (SSW) 2,383 7.4 -29.5°
Maximum altitude 01:53:41 32° 262° (W) 1,357 6.3 -30.5°
Drops below altitude 10° 01:58:22 10° 325° (NW) 2,389 7.3 -31.4°
Sets 02:00:58 0° 335° (NNW) 3,321 8.0 -32.0°
